Terminal Aerodrome Forecast
Issued by NWS Austin/San Antonio, TX

Home | Current Version | Previous Version | Text Only | Print | Product List | Glossary On
Versions: 1 2 3 4 5 6 7 8 9 10 11 12 13 14 15 16 17 18 19 20 21 22 23 24 25
000
FTUS44 KEWX 201700
TAFSAT
TAF
KSAT 201737Z 2018/2124 15015G20KT P6SM SCT040 SCT250
     FM210100 14016KT P6SM SCT070
     FM210800 16010KT P6SM BKN015
     FM211600 17014KT P6SM SCT040=

USA.gov is the U.S. government's official web portal to all federal, state and local government web resources and services.